This is the latest recevied weather packets stored in our database for station/object WX4HP-13. If no packets are shown the sender has not sent any weather packets the latest 10 day(s).
| Time | Temp. | Humidity | Pressure | Rain* | Wind** | Luminosity | Snow |
|---|---|---|---|---|---|---|---|
| 1777682396 | 13.89° C | 83% | 1013.5 hPa | 0 mm | - | - | - |
| 1777682097 | 13.89° C | 81% | 1013.3 hPa | 0 mm | - | - | - |
| 1777681796 | 13.89° C | 82% | 1013.5 hPa | 0 mm | - | - | - |
| 1777681197 | 13.89° C | 80% | 1013.4 hPa | 0 mm | - | - | - |
| 1777680895 | 14.44° C | 80% | 1013.2 hPa | 0 mm | - | - | - |
| 1777680595 | 14.44° C | 79% | 1013.3 hPa | 0 mm | - | - | - |
| 1777680297 | 14.44° C | 79% | 1013.4 hPa | 0 mm | - | - | - |
| 1777679997 | 14.44° C | 79% | 1013.4 hPa | 0 mm | - | - | - |
| 1777679697 | 14.44° C | 79% | 1013.1 hPa | 0 mm | - | - | - |
| 1777679396 | 14.44° C | 77% | 1013.1 hPa | 0 mm | - | - | - |
| 1777679097 | 15° C | 76% | 1013 hPa | 0 mm | - | - | - |
| 1777678795 | 15° C | 76% | 1013.1 hPa | 0 mm | - | - | - |
| 1777678495 | 15° C | 72% | 1013.3 hPa | 0 mm | - | - | - |
| 1777678195 | 15.56° C | 70% | 1013.2 hPa | 0 mm | - | - | - |
| 1777677895 | 15.56° C | 71% | 1013.2 hPa | 0 mm | - | - | - |
| 1777677595 | 15.56° C | 71% | 1013 hPa | 0 mm | - | - | - |
| 1777677297 | 15.56° C | 69% | 1013.2 hPa | 0 mm | - | - | - |
| 1777676996 | 16.11° C | 69% | 1013.2 hPa | 0 mm | - | - | - |
| 1777676696 | 16.11° C | 66% | 1013.2 hPa | 0 mm | - | - | - |
| 1777676395 | 16.11° C | 62% | 1013.1 hPa | 0 mm | - | - | - |
| 1777676095 | 16.11° C | 59% | 1013 hPa | 0 mm | - | - | - |
| 1777675795 | 16.67° C | 57% | 1012.9 hPa | 0 mm | - | - | - |
| 1777675495 | 16.67° C | 55% | 1012.9 hPa | 0 mm | - | - | - |
| 1777675195 | 16.67° C | 54% | 1012.9 hPa | 0 mm | - | - | - |
| 1777674897 | 16.67° C | 54% | 1012.8 hPa | 0 mm | - | - | - |
* Rain latest hour (hover to see other rain measurements)
** Current wind speed in m/s (hover to see current wind gust speed)